,,Stat6,,Stat2,,Stat8,,Stat9,,Stat10,,Wind1,,Wind1,
time,status,PA1M_AVG,status,PR1M_SUM,status,RH1M_AVG,status,SR1M_AVG,status,TA1M_AVG,status,W1dAve1m,status,W1sAve1m,
2008-11-20, 00:00:01,VALID,916.868,VALID,0,VALID,100,VALID,-0.0169808,VALID,19.1705,VALID,113,VALID,0,
2008-11-20, 00:01:00,VALID,916.867,VALID,0,VALID,100,VALID,-0.0169808,VALID,19.164,VALID,118,VALID,0,
2008-11-20, 00:02:01,VALID,916.855,VALID,0,VALID,100,VALID,-0.0169808,VALID,19.1543,VALID,106,VALID,0,
2008-11-20, 00:03:00,VALID,916.84,VALID,0,VALID,100,VALID,0,VALID,19.1543,VALID,89,VALID,0,
2008-11-20, 00:04:00,VALID,916.826,VALID,0,VALID,100,VALID,0,VALID,19.1543,VALID,96,VALID,0,
2008-11-20, 00:05:01,VALID,916.822,VALID,0,VALID,100,VALID,-0.0169808,VALID,19.1413,VALID,100,VALID,0,
2008-11-20, 00:06:01,VALID,916.815,VALID,0,VALID,100,VALID,0.0169808,VALID,19.1118,VALID,101,VALID,0,
2008-11-20, 00:07:01,VALID,916.801,VALID,0,VALID,100,VALID,-0.0679233,VALID,19.0903,VALID,107,VALID,0.0483631,
2008-11-20, 00:08:01,VALID,916.779,VALID,0,VALID,100,VALID,-0.0849042,VALID,19.0679,VALID,114,VALID,0.0012718,
2008-11-20, 00:09:01,VALID,916.754,VALID,0,VALID,100,VALID,-0.101885,VALID,19.032,VALID,114,VALID,0,
2008-11-20, 00:10:01,VALID,916.748,VALID,0,VALID,100,VALID,-0.0679233,VALID,19.0259,VALID,112,VALID,0,
2008-11-20, 00:11:00,VALID,916.751,VALID,0,VALID,100,VALID,-0.101885,VALID,19.0097,VALID,109,VALID,0,
2008-11-20, 00:12:00,VALID,916.742,VALID,0,VALID,100,VALID,-0.118866,VALID,18.993,VALID,113,VALID,0,
2008-11-20, 00:13:00,VALID,916.741,VALID,0,VALID,100,VALID,-0.118866,VALID,18.98,VALID,121,VALID,0,
2008-11-20, 00:14:00,VALID,916.727,VALID,0,VALID,100,VALID,-0.101885,VALID,18.9708,VALID,134,VALID,0,
2008-11-20, 00:15:00,VALID,916.702,VALID,0,VALID,100,VALID,-0.101885,VALID,18.9775,VALID,139,VALID,0,
2008-11-20, 00:16:00,VALID,916.701,VALID,0,VALID,100,VALID,-0.101885,VALID,18.9773,VALID,138,VALID,0,
2008-11-20, 00:17:00,VALID,916.707,VALID,0,VALID,100,VALID,-0.101885,VALID,18.9935,VALID,137,VALID,0,
2008-11-20, 00:18:00,VALID,916.711,VALID,0,VALID,100,VALID,-0.101885,VALID,18.9935,VALID,137,VALID,0,
2008-11-20, 00:19:00,VALID,916.714,VALID,0,VALID,100,VALID,-0.101885,VALID,18.9965,VALID,147,VALID,0,
2008-11-20, 00:20:00,VALID,916.711,VALID,0,VALID,100,VALID,-0.0849042,VALID,19.016,VALID,149,VALID,0,
2008-11-20, 00:21:00,VALID,916.721,VALID,0,VALID,100,VALID,-0.0679233,VALID,19.0192,VALID,149,VALID,0,
2008-11-20, 00:22:00,VALID,916.709,VALID,0,VALID,100,VALID,-0.0849042,VALID,19.0095,VALID,149,VALID,0,
2008-11-20, 00:23:00,VALID,916.702,VALID,0,VALID,100,VALID,-0.101885,VALID,18.9963,VALID,147,VALID,0,
2008-11-20, 00:24:00,VALID,916.701,VALID,0,VALID,100,VALID,-0.101885,VALID,18.98,VALID,139,VALID,0.0768821,
2008-11-20, 00:25:00,VALID,916.692,VALID,0,VALID,100,VALID,-0.0849042,VALID,18.9636,VALID,136,VALID,0.0327381,
2008-11-20, 00:26:00,VALID,916.692,VALID,0,VALID,100,VALID,-0.0509425,VALID,18.9404,VALID,131,VALID,0,
2008-11-20, 00:27:00,VALID,916.682,VALID,0,VALID,100,VALID,-0.118866,VALID,18.9342,VALID,130,VALID,0,
2008-11-20, 00:28:00,VALID,916.659,VALID,0,VALID,100,VALID,-0.101885,VALID,18.9376,VALID,135,VALID,0,
2008-11-20, 00:29:00,VALID,916.645,VALID,0,VALID,100,VALID,-0.0679233,VALID,18.9508,VALID,136,VALID,0.127663,
2008-11-20, 00:30:00,VALID,916.642,VALID,0,VALID,100,VALID,-0.135847,VALID,18.9478,VALID,138,VALID,0.646341,
2008-11-20, 00:31:00,VALID,916.628,VALID,0,VALID,100,VALID,-0.0849042,VALID,18.9474,VALID,138,VALID,0.289453,
2008-11-20, 00:32:00,VALID,916.594,VALID,0,VALID,100,VALID,-0.0849042,VALID,18.9506,VALID,118,VALID,0.0459666,
2008-11-20, 00:33:00,VALID,916.576,VALID,0,VALID,100,VALID,-0.101885,VALID,18.9379,VALID,124,VALID,0.105273,
2008-11-20, 00:34:00,VALID,916.564,VALID,0,VALID,100,VALID,-0.101885,VALID,18.9316,VALID,127,VALID,0.0443314,
2008-11-20, 00:35:00,VALID,916.538,VALID,0,VALID,100,VALID,-0.0679233,VALID,18.9249,VALID,127,VALID,0,
2008-11-20, 00:36:00,VALID,916.521,VALID,0,VALID,100,VALID,-0.0849042,VALID,18.9214,VALID,130,VALID,0,
2008-11-20, 00:37:00,VALID,916.528,VALID,0,VALID,100,VALID,-0.0679233,VALID,18.9147,VALID,122,VALID,0,
2008-11-20, 00:38:00,VALID,916.502,VALID,0,VALID,100,VALID,-0.135847,VALID,18.9314,VALID,122,VALID,0,
2008-11-20, 00:39:00,VALID,916.478,VALID,0,VALID,100,VALID,-0.101885,VALID,18.9379,VALID,123,VALID,0,
2008-11-20, 00:40:00,VALID,916.468,VALID,0,VALID,100,VALID,-0.0849042,VALID,18.9573,VALID,125,VALID,0,
2008-11-20, 00:41:00,VALID,916.455,VALID,0,VALID,100,VALID,-0.0849042,VALID,18.9633,VALID,131,VALID,0,
2008-11-20, 00:42:00,VALID,916.464,VALID,0,VALID,100,VALID,-0.0509425,VALID,18.9506,VALID,126,VALID,0,
2008-11-20, 00:43:00,VALID,916.467,VALID,0,VALID,100,VALID,-0.0849042,VALID,18.9409,VALID,120,VALID,0,
2008-11-20, 00:44:00,VALID,916.465,VALID,0,VALID,100,VALID,-0.101885,VALID,18.9247,VALID,94,VALID,0,
2008-11-20, 00:45:00,VALID,916.453,VALID,0,VALID,100,VALID,-0.101885,VALID,18.9281,VALID,105,VALID,0,
2008-11-20, 00:46:00,VALID,916.447,VALID,0,VALID,100,VALID,-0.0339617,VALID,18.9406,VALID,112,VALID,0,
2008-11-20, 00:47:00,VALID,916.454,VALID,0,VALID,100,VALID,-0.0509425,VALID,18.9504,VALID,120,VALID,0,
2008-11-20, 00:48:00,VALID,916.451,VALID,0,VALID,100,VALID,-0.0679233,VALID,18.9566,VALID,108,VALID,0,
2008-11-20, 00:49:00,VALID,916.46,VALID,0,VALID,100,VALID,-0.0679233,VALID,18.9599,VALID,105,VALID,0,
2008-11-20, 00:50:00,VALID,916.458,VALID,0,VALID,100,VALID,-0.0169808,VALID,18.9661,VALID,94,VALID,0,
2008-11-20, 00:51:00,VALID,916.455,VALID,0,VALID,100,VALID,-0.0679233,VALID,18.9701,VALID,71,VALID,0,
2008-11-20, 00:52:00,VALID,916.446,VALID,0,VALID,100,VALID,-0.0679233,VALID,18.9534,VALID,71,VALID,0,
2008-11-20, 00:53:00,VALID,916.455,VALID,0,VALID,100,VALID,-0.0339617,VALID,18.9372,VALID,71,VALID,0,
2008-11-20, 00:54:00,VALID,916.448,VALID,0,VALID,100,VALID,-0.0849042,VALID,18.8855,VALID,88,VALID,0,
2008-11-20, 00:55:00,VALID,916.43,VALID,0,VALID,100,VALID,-0.101885,VALID,18.8656,VALID,117,VALID,0,
2008-11-20, 00:56:00,VALID,916.439,VALID,0,VALID,100,VALID,-0.0339617,VALID,18.873,VALID,127,VALID,0,
2008-11-20, 00:57:00,VALID,916.429,VALID,0,VALID,100,VALID,-0.118866,VALID,18.8663,VALID,133,VALID,0,
2008-11-20, 00:58:00,VALID,916.434,VALID,0,VALID,100,VALID,-0.101885,VALID,18.8755,VALID,134,VALID,0,
2008-11-20, 00:59:00,VALID,916.42,VALID,0,VALID,100,VALID,-0.0849042,VALID,18.8857,VALID,135,VALID,0,
2008-11-20, 01:00:00,VALID,916.414,VALID,0,VALID,100,VALID,-0.0679233,VALID,18.8925,VALID,138,VALID,0,
2008-11-20, 01:01:00,VALID,916.401,VALID,0,VALID,100,VALID,-0.0849042,VALID,18.8885,VALID,139,VALID,0,
2008-11-20, 01:02:00,VALID,916.395,VALID,0,VALID,100,VALID,-0.101885,VALID,18.895,VALID,139,VALID,0,
2008-11-20, 01:03:00,VALID,916.395,VALID,0,VALID,100,VALID,-0.0849042,VALID,18.908,VALID,139,VALID,0,
2008-11-20, 01:04:00,VALID,916.38,VALID,0,VALID,100,VALID,-0.0679233,VALID,18.9344,VALID,139,VALID,0,
2008-11-20, 01:05:00,VALID,916.399,VALID,0,VALID,100,VALID,-0.0849042,VALID,18.9342,VALID,139,VALID,0,
2008-11-20, 01:06:00,VALID,916.375,VALID,0,VALID,100,VALID,-0.101885,VALID,18.9474,VALID,139,VALID,0,
2008-11-20, 01:07:00,VALID,916.371,VALID,0,VALID,100,VALID,0,VALID,18.9624,VALID,139,VALID,0,
2008-11-20, 01:08:00,VALID,916.354,VALID,0,VALID,100,VALID,0.0339617,VALID,18.9647,VALID,139,VALID,0,
2008-11-20, 01:09:00,VALID,916.331,VALID,0,VALID,100,VALID,0.0169808,VALID,18.9492,VALID,138,VALID,0,
2008-11-20, 01:10:00,VALID,916.325,VALID,0,VALID,100,VALID,0.0339617,VALID,18.9165,VALID,94,VALID,0,
2008-11-20, 01:11:00,VALID,916.316,VALID,0,VALID,100,VALID,0,VALID,18.9272,VALID,58,VALID,0.0105469,
2008-11-20, 01:12:00,VALID,916.322,VALID,0,VALID,100,VALID,0.0169808,VALID,18.9068,VALID,48,VALID,0.0574777,
2008-11-20, 01:13:00,VALID,916.312,VALID,0,VALID,100,VALID,0.0339617,VALID,18.8678,VALID,63,VALID,0,
2008-11-20, 01:14:00,VALID,916.291,VALID,0,VALID,100,VALID,0.0169808,VALID,18.8609,VALID,92,VALID,0,
2008-11-20, 01:15:00,VALID,916.286,VALID,0,VALID,100,VALID,0.0169808,VALID,18.8419,VALID,108,VALID,0,
2008-11-20, 01:16:00,VALID,916.283,VALID,0,VALID,100,VALID,0.0169808,VALID,18.8549,VALID,116,VALID,0,
2008-11-20, 01:17:00,VALID,916.272,VALID,0,VALID,100,VALID,0,VALID,18.8748,VALID,130,VALID,0,
2008-11-20, 01:18:00,VALID,916.251,VALID,0,VALID,100,VALID,0,VALID,18.8868,VALID,146,VALID,0,
2008-11-20, 01:19:00,VALID,916.229,VALID,0,VALID,100,VALID,0.0169808,VALID,18.8901,VALID,145,VALID,0,
2008-11-20, 01:20:00,VALID,916.214,VALID,0,VALID,100,VALID,0.0169808,VALID,18.907,VALID,148,VALID,0,
2008-11-20, 01:21:00,VALID,916.2,VALID,0,VALID,100,VALID,0.0169808,VALID,18.9165,VALID,162,VALID,0,
2008-11-20, 01:22:00,VALID,916.189,VALID,0,VALID,100,VALID,0,VALID,18.9133,VALID,159,VALID,0.874428,
2008-11-20, 01:23:00,VALID,916.193,VALID,0,VALID,100,VALID,0,VALID,18.9102,VALID,160,VALID,0.858696,
2008-11-20, 01:24:00,VALID,916.168,VALID,0,VALID,100,VALID,0,VALID,18.8868,VALID,153,VALID,0.527431,
2008-11-20, 01:25:00,VALID,916.171,VALID,0,VALID,100,VALID,0.0169808,VALID,18.8741,VALID,152,VALID,0.859747,
2008-11-20, 01:26:00,VALID,916.157,VALID,0,VALID,100,VALID,0.0169808,VALID,18.8449,VALID,138,VALID,0.0897529,
2008-11-20, 01:27:00,VALID,916.131,VALID,0,VALID,100,VALID,0,VALID,18.8159,VALID,128,VALID,0.441211,
2008-11-20, 01:28:00,VALID,916.122,VALID,0,VALID,100,VALID,-0.0169808,VALID,18.8092,VALID,128,VALID,0.0570913,
2008-11-20, 01:29:00,VALID,916.147,VALID,0,VALID,100,VALID,-0.0169808,VALID,18.8192,VALID,137,VALID,1.27453,
2008-11-20, 01:30:00,VALID,916.172,VALID,0,VALID,100,VALID,-0.0169808,VALID,18.8292,VALID,137,VALID,1.21949,
2008-11-20, 01:31:00,VALID,916.169,VALID,0,VALID,100,VALID,0,VALID,18.8192,VALID,135,VALID,1.35774,
2008-11-20, 01:32:00,VALID,916.168,VALID,0,VALID,100,VALID,0.0169808,VALID,18.8187,VALID,138,VALID,1.38742,
2008-11-20, 01:33:00,VALID,916.178,VALID,0,VALID,100,VALID,0.0169808,VALID,18.8319,VALID,134,VALID,0.629616,
2008-11-20, 01:34:00,VALID,916.185,VALID,0,VALID,100,VALID,0,VALID,18.8252,VALID,134,VALID,0.396577,
2008-11-20, 01:35:00,VALID,916.203,VALID,0,VALID,100,VALID,-0.0169808,VALID,18.8252,VALID,133,VALID,0.311955,
2008-11-20, 01:36:00,VALID,916.222,VALID,0,VALID,100,VALID,0,VALID,18.8451,VALID,138,VALID,0.340909,
2008-11-20, 01:37:00,VALID,916.225,VALID,0,VALID,100,VALID,-0.0679233,VALID,18.8491,VALID,130,VALID,0.171875,
2008-11-20, 01:38:00,VALID,916.244,VALID,0,VALID,100,VALID,-0.101885,VALID,18.8558,VALID,128,VALID,0.0896577,
2008-11-20, 01:39:00,VALID,916.239,VALID,0,VALID,100,VALID,-0.101885,VALID,18.8628,VALID,114,VALID,0.00390625,
2008-11-20, 01:40:00,VALID,916.223,VALID,0,VALID,100,VALID,-0.101885,VALID,18.8658,VALID,108,VALID,0,
2008-11-20, 01:41:00,VALID,916.199,VALID,0,VALID,100,VALID,-0.0849042,VALID,18.8628,VALID,116,VALID,0.0012718,
2008-11-20, 01:42:00,VALID,916.185,VALID,0,VALID,100,VALID,-0.0849042,VALID,18.8558,VALID,122,VALID,0,
2008-11-20, 01:43:00,VALID,916.169,VALID,0,VALID,100,VALID,-0.0679233,VALID,18.8625,VALID,112,VALID,0,
2008-11-20, 01:44:00,VALID,916.163,VALID,0,VALID,100,VALID,-0.101885,VALID,18.8591,VALID,111,VALID,0,
2008-11-20, 01:45:00,VALID,916.153,VALID,0,VALID,100,VALID,-0.101885,VALID,18.8853,VALID,103,VALID,0,
2008-11-20, 01:46:00,VALID,916.13,VALID,0,VALID,100,VALID,-0.0849042,VALID,18.9015,VALID,107,VALID,0,
2008-11-20, 01:47:00,VALID,916.118,VALID,0,VALID,100,VALID,-0.101885,VALID,18.902,VALID,146,VALID,0.184961,
2008-11-20, 01:48:00,VALID,916.107,VALID,0,VALID,100,VALID,-0.0849042,VALID,18.8947,VALID,138,VALID,0,
2008-11-20, 01:49:00,VALID,916.097,VALID,0,VALID,100,VALID,-0.0679233,VALID,18.9147,VALID,135,VALID,0.306734,
2008-11-20, 01:50:00,VALID,916.085,VALID,0,VALID,100,VALID,-0.0849042,VALID,18.9279,VALID,136,VALID,0.153343,
2008-11-20, 01:51:00,VALID,916.096,VALID,0,VALID,100,VALID,-0.0849042,VALID,18.9531,VALID,140,VALID,0.00223214,
2008-11-20, 01:52:00,VALID,916.094,VALID,0,VALID,100,VALID,-0.0169808,VALID,18.9754,VALID,131,VALID,0.000952744,
2008-11-20, 01:53:00,VALID,916.097,VALID,0,VALID,100,VALID,-0.0339617,VALID,18.9781,VALID,120,VALID,0,
2008-11-20, 01:54:00,VALID,916.094,VALID,0,VALID,100,VALID,0,VALID,18.9811,VALID,126,VALID,0.0581395,
2008-11-20, 01:55:00,VALID,916.082,VALID,0,VALID,100,VALID,0.0169808,VALID,18.9744,VALID,139,VALID,0.293269,
2008-11-20, 01:56:00,VALID,916.079,VALID,0,VALID,100,VALID,0,VALID,18.9712,VALID,137,VALID,0.384487,
2008-11-20, 01:57:00,VALID,916.085,VALID,0,VALID,100,VALID,0.0509425,VALID,18.9647,VALID,144,VALID,0.334339,
2008-11-20, 01:58:00,VALID,916.066,VALID,0,VALID,100,VALID,0.0339617,VALID,18.9582,VALID,148,VALID,0.00747283,
2008-11-20, 01:59:00,VALID,916.059,VALID,0,VALID,100,VALID,0.0339617,VALID,18.942,VALID,136,VALID,0.290334,
2008-11-20, 02:00:00,VALID,916.029,VALID,0,VALID,100,VALID,0.0339617,VALID,18.9258,VALID,138,VALID,0.290625,
2008-11-20, 02:01:00,VALID,916.028,VALID,0,VALID,100,VALID,0,VALID,18.9193,VALID,141,VALID,0.218023,
2008-11-20, 02:02:00,VALID,915.989,VALID,0,VALID,100,VALID,0.0339617,VALID,18.916,VALID,139,VALID,0.128018,
2008-11-20, 02:03:00,VALID,915.991,VALID,0,VALID,100,VALID,0.0169808,VALID,18.9193,VALID,159,VALID,0.0783026,
2008-11-20, 02:04:00,VALID,915.979,VALID,0,VALID,100,VALID,0,VALID,18.9193,VALID,149,VALID,0.141335,
2008-11-20, 02:05:00,VALID,915.956,VALID,0,VALID,100,VALID,0.0169808,VALID,18.9068,VALID,145,VALID,0.34003,
2008-11-20, 02:06:00,VALID,915.951,VALID,0,VALID,100,VALID,-0.0169808,VALID,18.8903,VALID,146,VALID,0.163175,
2008-11-20, 02:07:00,VALID,915.935,VALID,0,VALID,100,VALID,-0.0679233,VALID,18.8878,VALID,132,VALID,0.0646307,
2008-11-20, 02:08:00,VALID,915.933,VALID,0,VALID,100,VALID,-0.101885,VALID,18.869,VALID,148,VALID,0.296697,
2008-11-20, 02:09:00,VALID,915.932,VALID,0,VALID,100,VALID,-0.0849042,VALID,18.8625,VALID,153,VALID,0.139353,
2008-11-20, 02:10:00,VALID,915.926,VALID,0,VALID,100,VALID,-0.0679233,VALID,18.8558,VALID,139,VALID,0.116279,
2008-11-20, 02:11:00,VALID,915.915,VALID,0,VALID,100,VALID,-0.118866,VALID,18.869,VALID,139,VALID,0,
2008-11-20, 02:12:00,VALID,915.912,VALID,0,VALID,100,VALID,-0.101885,VALID,18.8528,VALID,142,VALID,0,
2008-11-20, 02:13:00,VALID,915.917,VALID,0,VALID,100,VALID,-0.0849042,VALID,18.866,VALID,151,VALID,0.0335286,
2008-11-20, 02:14:00,VALID,915.923,VALID,0,VALID,100,VALID,-0.118866,VALID,18.879,VALID,144,VALID,0.0531994,
2008-11-20, 02:15:00,VALID,915.925,VALID,0,VALID,100,VALID,-0.101885,VALID,18.8985,VALID,140,VALID,0.0145349,
2008-11-20, 02:16:00,VALID,915.928,VALID,0,VALID,100,VALID,-0.101885,VALID,18.9182,VALID,135,VALID,0.00109012,
2008-11-20, 02:17:00,VALID,915.921,VALID,0,VALID,99.8761,VALID,-0.0849042,VALID,18.9402,VALID,116,VALID,0,
2008-11-20, 02:18:00,VALID,915.937,VALID,0,VALID,99.751,VALID,-0.0679233,VALID,19.0055,VALID,94,VALID,0,
2008-11-20, 02:19:00,VALID,915.964,VALID,0,VALID,99.5476,VALID,-0.101885,VALID,19.0088,VALID,95,VALID,0,
2008-11-20, 02:20:00,VALID,915.96,VALID,0,VALID,99.4649,VALID,-0.101885,VALID,18.9925,VALID,90,VALID,0.046317,
2008-11-20, 02:21:00,VALID,915.982,VALID,0,VALID,99.2767,VALID,-0.118866,VALID,18.9434,VALID,92,VALID,0,
2008-11-20, 02:22:00,VALID,915.981,VALID,0,VALID,99.189,VALID,-0.0339617,VALID,18.9205,VALID,97,VALID,0,
2008-11-20, 02:23:00,VALID,915.979,VALID,0,VALID,99.1127,VALID,0,VALID,18.907,VALID,108,VALID,0.189103,
2008-11-20, 02:24:00,VALID,915.993,VALID,0,VALID,99.0427,VALID,0,VALID,18.9105,VALID,108,VALID,0.00266335,
2008-11-20, 02:25:00,VALID,915.999,VALID,0,VALID,99.044,VALID,-0.0169808,VALID,18.9003,VALID,104,VALID,0.00279018,
2008-11-20, 02:26:00,VALID,915.992,VALID,0,VALID,99.208,VALID,-0.0169808,VALID,18.9005,VALID,98,VALID,0.000726744,
2008-11-20, 02:27:00,VALID,915.992,VALID,0,VALID,99.381,VALID,0.0169808,VALID,18.8905,VALID,126,VALID,0,
2008-11-20, 02:28:00,VALID,916.012,VALID,0,VALID,99.5743,VALID,0,VALID,18.8711,VALID,134,VALID,0,
2008-11-20, 02:29:00,VALID,915.999,VALID,0,VALID,99.8019,VALID,0,VALID,18.8683,VALID,131,VALID,0,
2008-11-20, 02:30:00,VALID,916.005,VALID,0,VALID,99.9926,VALID,0,VALID,18.8553,VALID,136,VALID,0,
2008-11-20, 02:31:00,VALID,916.006,VALID,0,VALID,100,VALID,0,VALID,18.8558,VALID,134,VALID,0,
2008-11-20, 02:32:00,VALID,916.011,VALID,0,VALID,100,VALID,-0.0169808,VALID,18.8359,VALID,134,VALID,0,
2008-11-20, 02:33:00,VALID,916.014,VALID,0,VALID,100,VALID,0,VALID,18.8227,VALID,124,VALID,0,
2008-11-20, 02:34:00,VALID,916.033,VALID,0,VALID,100,VALID,0,VALID,18.8294,VALID,129,VALID,0,
2008-11-20, 02:35:00,VALID,916.03,VALID,0,VALID,100,VALID,0,VALID,18.8296,VALID,134,VALID,0,
2008-11-20, 02:36:00,VALID,916.038,VALID,0,VALID,100,VALID,-0.0339617,VALID,18.8194,VALID,146,VALID,0,
2008-11-20, 02:37:00,VALID,916.034,VALID,0,VALID,100,VALID,0,VALID,18.8361,VALID,146,VALID,0,
2008-11-20, 02:38:00,VALID,916.044,VALID,0,VALID,100,VALID,0,VALID,18.8361,VALID,141,VALID,0,
2008-11-20, 02:39:00,VALID,916.041,VALID,0,VALID,100,VALID,-0.0169808,VALID,18.8296,VALID,148,VALID,0,
2008-11-20, 02:40:00,VALID,916.04,VALID,0,VALID,100,VALID,0,VALID,18.8197,VALID,145,VALID,0,
2008-11-20, 02:41:00,VALID,916.038,VALID,0,VALID,100,VALID,-0.0339617,VALID,18.8319,VALID,155,VALID,0,
2008-11-20, 02:42:00,VALID,916.025,VALID,0,VALID,100,VALID,0.0509425,VALID,18.8451,VALID,148,VALID,0,
2008-11-20, 02:43:00,VALID,916.009,VALID,0,VALID,100,VALID,0.0169808,VALID,18.8484,VALID,142,VALID,0,
2008-11-20, 02:44:00,VALID,915.998,VALID,0,VALID,100,VALID,0,VALID,18.8648,VALID,137,VALID,0,
2008-11-20, 02:45:00,VALID,915.982,VALID,0,VALID,100,VALID,0,VALID,18.8519,VALID,150,VALID,0,
2008-11-20, 02:46:00,VALID,915.974,VALID,0,VALID,100,VALID,0.0169808,VALID,18.8588,VALID,148,VALID,0,
2008-11-20, 02:47:00,VALID,915.958,VALID,0,VALID,100,VALID,0,VALID,18.8621,VALID,150,VALID,0,
2008-11-20, 02:48:00,VALID,915.946,VALID,0,VALID,100,VALID,0,VALID,18.8618,VALID,149,VALID,0,
2008-11-20, 02:49:00,VALID,915.95,VALID,0,VALID,100,VALID,0.0169808,VALID,18.8653,VALID,163,VALID,0,
2008-11-20, 02:50:00,VALID,915.954,VALID,0,VALID,100,VALID,-0.0169808,VALID,18.8519,VALID,156,VALID,0.102108,
2008-11-20, 02:51:00,VALID,915.951,VALID,0,VALID,100,VALID,0,VALID,18.8584,VALID,146,VALID,0.0751065,
2008-11-20, 02:52:00,VALID,915.946,VALID,0,VALID,100,VALID,-0.0169808,VALID,18.8561,VALID,146,VALID,0,
2008-11-20, 02:53:00,VALID,915.943,VALID,0,VALID,100,VALID,-0.101885,VALID,18.8498,VALID,146,VALID,0,
2008-11-20, 02:54:00,VALID,915.926,VALID,0,VALID,100,VALID,-0.118866,VALID,18.8433,VALID,144,VALID,0,
2008-11-20, 02:55:00,VALID,915.939,VALID,0,VALID,100,VALID,-0.101885,VALID,18.8144,VALID,120,VALID,0,
2008-11-20, 02:56:00,VALID,915.931,VALID,0,VALID,100,VALID,-0.101885,VALID,18.7757,VALID,113,VALID,0,
2008-11-20, 02:57:00,VALID,915.936,VALID,0,VALID,100,VALID,-0.0679233,VALID,18.769,VALID,118,VALID,0.137195,
2008-11-20, 02:58:00,VALID,915.941,VALID,0,VALID,100,VALID,-0.135847,VALID,18.7627,VALID,124,VALID,0.121911,
2008-11-20, 02:59:00,VALID,915.941,VALID,0,VALID,100,VALID,-0.101885,VALID,18.7627,VALID,125,VALID,0.00228659,
2008-11-20, 03:00:00,VALID,915.923,VALID,0,VALID,100,VALID,-0.101885,VALID,18.7365,VALID,119,VALID,0,
2008-11-20, 03:01:00,VALID,915.903,VALID,0,VALID,100,VALID,-0.118866,VALID,18.7268,VALID,110,VALID,0,
2008-11-20, 03:02:00,VALID,915.896,VALID,0,VALID,100,VALID,-0.135847,VALID,18.724,VALID,126,VALID,0,
2008-11-20, 03:03:00,VALID,915.886,VALID,0,VALID,100,VALID,-0.135847,VALID,18.7203,VALID,137,VALID,0,
2008-11-20, 03:04:00,VALID,915.878,VALID,0,VALID,100,VALID,-0.101885,VALID,18.7405,VALID,148,VALID,0,
2008-11-20, 03:05:00,VALID,915.862,VALID,0,VALID,100,VALID,-0.118866,VALID,18.7428,VALID,140,VALID,0,
2008-11-20, 03:06:00,VALID,915.841,VALID,0,VALID,100,VALID,-0.101885,VALID,18.7365,VALID,139,VALID,0,
2008-11-20, 03:07:00,VALID,915.801,VALID,0,VALID,100,VALID,-0.0509425,VALID,18.7393,VALID,131,VALID,0,
2008-11-20, 03:08:00,VALID,915.783,VALID,0,VALID,100,VALID,0.0169808,VALID,18.7124,VALID,114,VALID,0,
2008-11-20, 03:09:00,VALID,915.759,VALID,0,VALID,100,VALID,-0.0339617,VALID,18.7027,VALID,117,VALID,0,
2008-11-20, 03:10:00,VALID,915.749,VALID,0,VALID,100,VALID,0,VALID,18.6999,VALID,117,VALID,0,
2008-11-20, 03:11:00,VALID,915.753,VALID,0,VALID,100,VALID,0,VALID,18.6962,VALID,119,VALID,0.274581,
2008-11-20, 03:12:00,VALID,915.752,VALID,0,VALID,100,VALID,-0.0169808,VALID,18.6962,VALID,123,VALID,0.0065696,
2008-11-20, 03:13:00,VALID,915.764,VALID,0,VALID,100,VALID,0.0169808,VALID,18.7029,VALID,134,VALID,0,
2008-11-20, 03:14:00,VALID,915.773,VALID,0,VALID,100,VALID,0.0169808,VALID,18.6994,VALID,134,VALID,0,
2008-11-20, 03:15:00,VALID,915.777,VALID,0,VALID,100,VALID,-0.0169808,VALID,18.6962,VALID,134,VALID,0,
2008-11-20, 03:16:00,VALID,915.8,VALID,0,VALID,100,VALID,-0.0339617,VALID,18.6929,VALID,134,VALID,0,
2008-11-20, 03:17:00,VALID,915.819,VALID,0,VALID,100,VALID,-0.0339617,VALID,18.7161,VALID,128,VALID,0,
2008-11-20, 03:18:00,VALID,915.828,VALID,0,VALID,100,VALID,-0.0169808,VALID,18.7224,VALID,113,VALID,0.0334302,
2008-11-20, 03:19:00,VALID,915.843,VALID,0,VALID,100,VALID,-0.0169808,VALID,18.7356,VALID,114,VALID,0,
2008-11-20, 03:20:00,VALID,915.861,VALID,0,VALID,100,VALID,-0.0339617,VALID,18.7356,VALID,122,VALID,0.114955,
2008-11-20, 03:21:00,VALID,915.888,VALID,0,VALID,100,VALID,-0.0339617,VALID,18.7323,VALID,117,VALID,0,
2008-11-20, 03:22:00,VALID,915.916,VALID,0,VALID,100,VALID,0,VALID,18.7416,VALID,111,VALID,0,
2008-11-20, 03:23:00,VALID,915.931,VALID,0,VALID,100,VALID,0.0339617,VALID,18.7249,VALID,104,VALID,0,
2008-11-20, 03:24:00,VALID,915.948,VALID,0,VALID,100,VALID,0,VALID,18.7316,VALID,104,VALID,0,
2008-11-20, 03:25:00,VALID,915.952,VALID,0,VALID,100,VALID,0.0169808,VALID,18.7152,VALID,110,VALID,0,
2008-11-20, 03:26:00,VALID,915.941,VALID,0,VALID,100,VALID,0.0339617,VALID,18.7087,VALID,116,VALID,0,
2008-11-20, 03:27:00,VALID,915.94,VALID,0,VALID,100,VALID,0.0339617,VALID,18.7057,VALID,121,VALID,0.0300071,
2008-11-20, 03:28:00,VALID,915.938,VALID,0,VALID,100,VALID,-0.0169808,VALID,18.7228,VALID,124,VALID,0,
2008-11-20, 03:29:00,VALID,915.931,VALID,0,VALID,100,VALID,0,VALID,18.7029,VALID,120,VALID,0,
2008-11-20, 03:30:00,VALID,915.925,VALID,0,VALID,100,VALID,0.0169808,VALID,18.6959,VALID,128,VALID,0.102257,
2008-11-20, 03:31:00,VALID,915.928,VALID,0,VALID,100,VALID,0,VALID,18.6892,VALID,129,VALID,0.346701,
2008-11-20, 03:32:00,VALID,915.908,VALID,0,VALID,100,VALID,0,VALID,18.6929,VALID,136,VALID,0.0677649,
2008-11-20, 03:33:00,VALID,915.899,VALID,0,VALID,100,VALID,0.0169808,VALID,18.6762,VALID,139,VALID,0.11795,
2008-11-20, 03:34:00,VALID,915.895,VALID,0,VALID,100,VALID,0.0339617,VALID,18.6698,VALID,139,VALID,0.334872,
2008-11-20, 03:35:00,VALID,915.899,VALID,0,VALID,100,VALID,0.0169808,VALID,18.6864,VALID,142,VALID,0.190662,
2008-11-20, 03:36:00,VALID,915.908,VALID,0,VALID,100,VALID,0.0509425,VALID,18.6927,VALID,141,VALID,0,
2008-11-20, 03:37:00,VALID,915.898,VALID,0,VALID,100,VALID,0.0339617,VALID,18.6962,VALID,137,VALID,0.125545,
2008-11-20, 03:38:00,VALID,915.901,VALID,0,VALID,100,VALID,0,VALID,18.6964,VALID,130,VALID,0.0686384,
2008-11-20, 03:39:00,VALID,915.882,VALID,0,VALID,100,VALID,0,VALID,18.6994,VALID,131,VALID,0,
2008-11-20, 03:40:00,VALID,915.873,VALID,0,VALID,100,VALID,0.0169808,VALID,18.6962,VALID,136,VALID,0,
2008-11-20, 03:41:00,VALID,915.87,VALID,0,VALID,100,VALID,0.0169808,VALID,18.683,VALID,136,VALID,0,
2008-11-20, 03:42:00,VALID,915.869,VALID,0,VALID,100,VALID,0,VALID,18.6767,VALID,117,VALID,0,
2008-11-20, 03:43:00,VALID,915.865,VALID,0,VALID,100,VALID,0.0339617,VALID,18.6637,VALID,134,VALID,0.573583,
2008-11-20, 03:44:00,VALID,915.859,VALID,0,VALID,100,VALID,0,VALID,18.664,VALID,140,VALID,0.184411,
2008-11-20, 03:45:00,VALID,915.852,VALID,0,VALID,100,VALID,0.0169808,VALID,18.664,VALID,148,VALID,0.129084,
2008-11-20, 03:46:00,VALID,915.844,VALID,0,VALID,100,VALID,-0.0169808,VALID,18.6667,VALID,150,VALID,0.477325,
2008-11-20, 03:47:00,VALID,915.839,VALID,0,VALID,100,VALID,0,VALID,18.6765,VALID,147,VALID,0.478365,